Presure
151 146 125 128 125 131 127 125 136 135 131 135 148 149 151 158 167 180 213 143 184 193 223 223 204 171 187 193 203 112 151 124 127 140 130 177 186 181 162 174 172 179 176 180
176 131 123 123 128 126 132 126 119 137 138 137 150 147 119 168 158 148 107 188 194 180 201 216 213 202 201 202 188 240 220 134 161 134 134 148 190 172 170 177 180 173 178 170
175 164 127 118 123 128 136 130 133 136 118 120 120 138 148 120 102 156 192 184 187 198 197 225 182 204 204 200 201 200 167 190 134 130 129 141 190 196 183 177 183 184 186 175
169 153 152 125 119 131 134 131 131 133 137 105 128 138 140 99 169 122 179 207 176 194 205 224 218 193 215 203 211 204 183 187 139 160 136 140 131 133 130 170 151 148 189 197
196 128 138 150 124 123 121 134 134 133 135 136 138 107 148 169 174 162 161 201 212 191 205 151 213 208 298 358 301 217 214 159 201 122 153 124 138 141 123 134 125 128 124 144
196 170 137 149 122 119 133 134 136 138 117 99 137 122 135 153 167 173 143 193 124 167 218 164 245 341 213 324 321 247 155 180 163 126 139 137 119 125 133 137 131 136 120 127
174 178 188 203 122 119 123 129 122 139 139 136 145 135 133 148 162 178 160 198 154 177 213 224 273 235 324 344 340 269 191 226 222 185 131 139 141 141 133 115 143 139 133 142
181 183 178 205 130 114 122 136 131 142 135 136 145 137 141 146 161 175 169 153 221 207 225 223 264 319 317 317 343 315 240 225 139 181 158 145 126 119 148 136 131 143 125 126
176 205 187 142 125 132 140 127 134 136 132 140 142 135 137 143 163 164 175 155 154 218 229 225 261 319 303 330 336 345 266 244 136 174 182 136 151 168 154 129 158 139 129 123
147 203 202 160 202 111 87 122 132 137 134 138 144 136 147 141 161 168 182 159 221 203 179 228 257 326 307 277 321 351 260 253 139 145 175 148 129 128 138 140 125 142 144 148
215 210 204 203 180 88 129 132 121 133 138 138 127 147 137 139 155 169 184 184 221 172 171 235 263 320 283 312 174 378 381 219 140 129 181 156 129 142 148 142 91 160 148 124
214 211 205 198 195 122 165 129 119 131 132 140 135 145 137 139 158 183 186 169 223 214 238 255 270 355 289 308 327 348 382 284 250 150 131 159 162 134 115 131 119 143 97 125
192 194 192 192 189 155 146 154 133 142 139 137 143 152 133 130 166 191 217 194 223 234 241 208 271 350 299 236 318 354 362 276 213 186 170 168 161 149 153 145 159 112 142 124
177 178 141 178 143 176 153 156 140 144 137 146 151 145 143 143 167 188 211 169 202 177 241 283 275 342 289 262 296 258 304 217 240 233 132 163 160 127 151 141 135 123 143 107
169 167 169 176 171 173 155 153 172 101 134 139 148 140 137 144 180 212 206 226 216 212 194 298 358 305 289 267 299 309 208 203 263 167 125 160 129 141 154 147 143 111 145 135
163 162 160 159 163 166 150 155 111 157 140 156 150 141 68 154 207 180 109 234 214 180 292 307 354 430 316 242 284 299 306 307 276 168 166 149 173 159 107 116 156 135 147 154
155 163 166 157 153 156 145 95 155 141 147 146 159 150 152 191 268 235 220 285 177 161 287 339 327 264 299 222 280 294 298 292 311 170 169 168 147 177 168 172 155 175 128 161
157 158 156 154 153 115 154 144 143 145 148 155 142 155 196 273 277 276 303 220 236 290 294 300 288 279 276 236 247 159 195 186 238 172 157 181 139 136 161 173 163 170 153 149
150 149 147 143 149 144 143 145 153 147 155 152 151 203 301 301 295 161 294 177 159 287 285 269 284 207 249 208 241 271 201 174 298 183 181 226 152 167 153 131 169 179 158 156
212 183 200 95 158 160 217 224 223 155 157 218 288 309 366 352 233 143 336 294 342 293 309 288 268 258 248 238 232 193 165 268 148 192 177 141 144 157 183 128 161 178 157 140
196 212 216 220 170 223 220 221 233 232 232 296 289 339 347 148 159 179 239 329 292 317 302 289 263 253 250 243 197 173 219 247 179 153 208 143 153 178 189 172 157 161 175 161
213 217 212 211 231 228 225 226 229 251 285 284 225 235 330 327 325 318 313 343 326 287 271 270 269 256 246 232 235 202 200 176 219 208 187 135 144 190 141 205 143 179 189 161
223 219 220 225 224 260 284 279 280 282 280 351 333 322 319 304 298 303 328 304 290 110 141 268 260 258 248 238 225 180 177 191 176 177 143 151 147 136 153 192 152 199 173 161
258 265 276 285 277 278 272 271 271 279 340 345 318 303 294 295 297 296 297 301 271 268 220 246 240 260 262 241 233 207 196 186 187 211 167 158 158 163 137 203 202 141 138 147
251 257 254 250 250 257 256 321 322 331 331 325 297 291 291 290 302 286 309 282 282 271 267 249 237 240 264 238 227 223 225 226 212 213 190 147 161 157 156 162 150 158 154 182
244 247 259 262 256 247 321 339 345 313 313 313 313 305 293 285 282 283 276 280 258 256 236 227 240 238 237 255 226 219 224 224 213 201 212 196 191 148 173 170 169 145 191 180
Wind_Speed
30 28 17 22 23 20 13 12 24 26 28 28 23 30 34 26 23 27 35 42 39 36 25 24 25 17 22 20 30 23 22 15 12 14 18 17 17 23 16 19 19 22 24 26
30 25 19 20 23 24 21 15 16 24 32 32 33 34 7 45 33 30 20 35 34 37 36 26 31 39 32 25 28 39 41 19 21 14 19 12 22 22 21 18 23 22 25 23
33 34 25 23 22 26 29 21 22 23 14 22 14 28 26 14 15 43 45 36 41 39 36 30 26 39 42 40 36 37 27 36 17 16 20 15 16 23 24 20 18 21 23 23
38 35 36 26 24 28 30 27 23 24 29 15 21 36 40 14 46 19 44 49 40 43 45 40 34 41 49 50 45 41 37 42 20 25 17 20 21 21 24 19 16 13 22 26
41 34 34 38 26 29 30 33 31 23 26 27 37 5 42 41 43 51 53 50 49 45 47 27 44 49 33 33 56 50 49 36 52 25 23 26 20 18 21 20 21 15 15 10
42 45 37 39 25 26 32 37 37 31 19 17 31 22 35 40 45 45 39 57 25 43 52 29 46 37 31 39 50 59 30 39 36 31 27 29 32 32 26 21 18 17 21 14
46 45 47 46 27 26 30 39 29 37 34 32 45 30 31 44 51 47 49 54 46 51 57 60 51 25 32 32 44 69 55 60 60 53 24 31 33 27 30 24 22 19 18 11
50 47 48 49 30 28 33 42 37 40 37 40 45 36 39 45 54 52 51 53 57 54 62 61 53 39 32 26 32 64 68 57 28 54 37 30 38 35 31 32 36 27 29 22
56 55 44 35 29 34 38 38 38 37 37 43 42 39 37 45 57 53 49 55 31 55 60 61 54 39 36 33 30 44 77 65 34 53 49 37 34 33 32 38 30 32 21 23
36 55 57 38 48 30 5 31 37 39 37 41 43 41 47 44 57 57 49 54 56 50 49 59 53 33 38 29 29 36 70 73 39 36 50 40 41 43 22 38 36 32 28 29
52 53 55 54 46 12 42 45 32 38 41 38 31 53 37 42 57 62 54 52 57 47 48 58 50 31 36 27 39 30 46 62 40 38 53 48 45 40 41 35 12 30 28 30
49 49 51 52 52 38 46 45 38 47 43 46 44 51 41 46 57 61 59 50 58 51 56 56 50 31 28 20 26 25 25 78 67 49 41 53 49 43 38 27 34 35 21 27
46 48 49 50 51 50 45 49 45 46 46 43 47 51 39 37 57 61 63 56 59 58 54 45 47 31 26 22 11 15 21 72 68 67 62 56 55 49 47 41 42 23 31 21
43 46 37 51 34 54 50 52 42 45 40 47 50 48 41 46 60 60 61 54 56 54 51 50 48 34 31 26 24 27 29 47 68 63 31 60 57 36 48 47 46 37 26 31
44 46 50 53 62 54 54 58 64 10 37 41 51 42 45 50 62 63 60 60 52 53 55 48 39 35 33 24 28 31 35 48 68 68 41 58 38 39 49 50 48 27 33 31
48 50 52 61 65 57 56 66 26 56 32 52 50 44 6 54 63 62 13 59 53 56 46 38 32 24 23 29 28 31 41 54 56 74 60 49 62 57 11 20 58 47 55 47
51 53 53 62 65 60 62 10 66 48 55 50 62 50 55 65 67 65 63 51 53 58 37 27 21 24 21 27 29 33 41 44 61 74 64 63 50 62 71 67 59 68 49 53
55 56 57 61 69 28 69 63 63 63 63 65 48 62 67 63 61 60 50 53 50 43 30 19 16 23 26 32 26 35 73 43 32 77 53 71 44 43 73 71 71 77 64 51
58 58 58 60 67 65 69 67 73 68 76 66 63 69 63 57 56 50 46 57 58 37 25 25 16 34 40 53 38 30 78 58 35 76 63 70 48 74 59 36 78 86 57 66
86 75 80 23 71 72 86 88 86 69 70 77 77 68 43 46 51 54 35 39 21 35 18 24 37 45 47 48 47 71 51 36 31 87 84 34 37 52 90 34 67 87 73 62
79 87 90 90 70 89 86 87 92 89 83 76 72 53 40 54 62 57 25 25 33 22 22 26 46 57 54 49 73 48 68 49 78 43 84 37 52 76 89 88 65 74 72 89
93 95 90 91 97 95 92 93 91 83 79 74 55 47 33 32 31 29 30 23 25 28 27 29 40 59 59 55 55 84 77 76 69 74 91 42 46 90 44 67 53 80 80 77
100 100 100 102 99 85 73 76 77 76 75 40 37 33 29 29 27 28 28 23 30 15 19 25 32 56 64 66 62 59 72 85 83 85 51 62 52 52 59 83 72 77 80 89
84 81 67 63 69 69 73 75 75 70 39 35 31 31 30 31 30 27 28 24 35 36 34 37 47 53 59 69 70 71 81 79 78 88 87 75 69 76 57 66 80 56 57 65
82 78 75 74 76 73 75 60 54 43 35 29 33 34 29 28 28 27 24 31 31 35 36 48 54 54 48 70 74 76 78 78 82 88 91 62 67 62 63 70 76 85 65 89
84 74 71 70 74 73 50 43 35 32 31 30 31 31 31 33 32 27 30 32 38 40 49 55 58 57 53 54 80 79 82 81 87 84 90 89 108 65 73 75 80 64 88 86
Wind_Direction
272 272 271 283 288 299 300 312 322 324 329 337 335 327 327 327 327 344 348 341 330 334 305 298 293 277 274 247 247 239 238 197 195 148 133 203 197 187 190 191 186 179 173 170
293 270 273 280 286 293 299 304 311 326 329 325 328 337 223 341 345 342 339 341 331 337 327 295 283 285 285 260 248 233 228 207 215 168 142 152 196 185 188 185 182 175 178 179
290 271 272 281 288 291 294 304 313 326 325 331 337 337 347 32 3 329 341 340 333 335 329 295 284 279 276 267 245 238 228 222 222 206 161 148 204 199 195 196 185 174 172 175
285 274 267 273 285 289 291 302 305 318 324 331 328 342 341 235 323 313 333 333 336 329 326 313 296 287 274 268 259 241 225 218 192 204 184 145 132 122 123 173 129 140 167 167
291 268 267 267 281 286 295 298 300 311 318 330 329 134 325 324 324 321 324 332 323 327 323 317 308 303 268 248 226 239 225 223 214 183 186 159 152 151 146 132 145 140 147 117
290 280 268 267 273 281 289 294 298 309 324 177 324 313 329 324 324 321 323 329 299 328 318 328 310 294 267 239 233 224 232 224 219 183 184 175 178 161 152 157 154 148 173 167
283 279 281 280 271 287 288 292 297 302 314 319 314 325 327 327 321 322 317 325 327 321 321 322 320 308 282 251 234 211 230 219 215 203 192 190 180 178 169 194 161 160 170 162
282 279 276 276 268 281 285 285 294 303 312 313 312 322 327 326 318 318 317 319 323 323 319 320 318 302 292 283 250 220 222 226 214 201 208 204 202 208 184 176 174 167 182 186
282 281 275 263 268 274 276 280 290 300 302 301 310 317 323 321 313 315 315 312 317 319 318 318 318 296 294 282 244 234 211 221 212 211 200 211 207 200 196 196 190 176 193 205
275 276 279 276 279 283 306 281 288 292 296 303 305 305 309 315 310 310 313 307 319 317 319 316 318 282 286 272 256 241 214 215 218 216 201 218 214 214 194 204 198 181 182 175
270 274 278 283 276 242 274 280 300 296 296 301 301 296 313 311 313 307 308 309 315 316 315 314 317 283 296 287 210 249 229 213 220 214 198 215 230 221 218 211 17 185 195 232
276 276 277 277 276 260 258 272 301 286 294 290 293 293 305 309 305 302 303 304 314 318 315 312 317 278 276 273 275 256 228 206 212 221 227 217 209 238 243 213 246 214 307 238
280 280 278 278 278 260 257 263 268 270 278 284 285 290 297 299 298 301 309 308 311 312 311 316 310 287 261 239 255 242 226 206 201 195 200 200 210 225 222 231 209 258 214 230
274 275 274 276 266 273 264 268 265 273 280 288 289 293 298 299 296 297 303 300 304 300 307 306 302 288 259 268 217 211 207 211 205 206 236 214 216 243 221 230 235 241 215 286
266 264 267 271 270 270 273 272 276 253 270 281 286 290 294 298 292 298 298 302 300 301 301 301 290 288 250 257 227 215 209 207 208 215 227 225 235 234 217 225 231 247 227 231
255 257 260 263 265 267 275 275 290 283 270 286 287 285 41 292 293 291 253 298 296 294 299 297 286 276 239 278 228 224 216 214 219 212 207 227 195 209 216 255 214 253 231 215
262 261 258 258 270 269 276 250 278 288 287 286 286 288 290 293 297 296 295 292 288 292 295 295 281 253 237 259 233 225 220 221 218 206 204 208 234 193 198 199 234 199 269 215
263 262 261 263 268 234 270 273 281 281 282 282 288 286 291 292 289 291 289 287 286 285 289 266 250 226 239 243 241 223 193 193 212 204 220 208 239 241 224 205 226 210 246 249
261 260 259 261 266 267 270 273 272 277 277 281 283 291 294 290 285 287 284 285 288 279 274 253 201 254 238 215 226 224 193 198 224 187 198 196 235 223 254 256 224 205 227 244
280 273 278 257 265 267 285 288 289 274 277 287 297 294 286 285 283 284 283 275 253 269 245 206 206 222 230 216 215 201 224 214 225 197 218 237 251 251 207 258 255 211 253 275
278 282 285 287 275 287 287 289 292 293 293 294 295 290 290 282 285 285 268 259 259 230 228 212 209 223 225 223 211 224 213 220 210 233 203 248 253 222 207 231 243 242 245 249
283 284 285 285 287 288 289 290 289 291 292 293 286 284 288 281 279 274 267 271 223 238 240 226 217 222 224 227 215 214 211 217 217 208 199 259 258 212 264 211 258 236 217 251
282 283 285 285 287 288 288 286 288 290 294 275 279 277 273 272 268 266 265 231 237 229 237 209 233 224 222 223 226 220 217 216 222 218 235 239 241 256 241 226 263 213 238 260
283 284 286 288 289 289 288 289 293 293 276 271 272 269 270 265 260 251 243 221 231 225 229 206 220 231 228 221 224 222 221 227 228 231 224 231 238 244 251 233 220 255 260 255
281 282 287 289 289 291 291 288 286 278 274 262 263 263 261 255 260 236 234 215 214 216 199 205 227 233 235 221 223 224 224 224 225 231 229 228 233 237 243 244 244 245 254 237
279 285 289 290 288 292 284 275 271 272 268 261 260 258 249 248 245 236 216 209 218 216 222 227 221 229 231 230 222 226 226 226 228 230 234 235 236 232 242 240 250 252 235 238